Regional Weather Roundup
Issued by NWS Kansas City/Pleasant Hill, MO

Home | Current Version | Previous Version | Text Only | Print | Product List | Glossary On
Versions: 1 2 3 4 5 6 7 8 9 10 11 12 13 14 15 16 17 18 19 20 21 22 23 24 25 26 27 28 29 30 31 32 33 34 35 36 37 38 39 40 41 42 43 44 45 46 47 48 49 50
000
ASUS43 KEAX 291111
RWREAX

WEATHER ROUNDUP FOR EASTERN KANSAS AND NORTHWEST MISSOURI
NATIONAL WEATHER SERVICE KANSAS CITY/PLEASANT HILL MO
600 AM CDT SUN MAR 29 2015

KSZ040-057-103>105-MOZ028-029-037-043-291200-
...KANSAS CITY METROPOLITAN AREA...

CITY           SKY/WX    TMP DP  RH WIND       PRES   REMARKS
K.C. INTL      CLOUDY    40  34  79 S10       29.95R WCI  33
K.C. DOWNTOWN  PTCLDY    41  33  73 VRB7      29.96F
LEES SUMMIT    CLEAR     37  32  82 S13G23    29.93F WCI  29
OLATHE - IXD   PTCLDY    38  33  82 SE18      29.92F WCI  28
OLATHE - OJC   PTCLDY    37  33  85 S20       29.93F WCI  27
LAWRENCE       PTCLDY    40  34  79 SE14      29.91F WCI  32

$$

MOZ001>008-011>017-020>025-030>033-038>040-044>046-053-054-291200-
...NORTHERN AND CENTRAL MISSOURI...

CITY           SKY/WX    TMP DP  RH WIND       PRES   REMARKS
ST. JOSEPH     CLOUDY    42  35  76 S8        29.95R
MOSBY          PTSUNNY   37  32  81 SE10      29.95R WCI  30
WARRENSBURG    CLEAR     36  32  87 S5        30.01R WCI  32
WHITEMAN AFB   PTCLDY    37  31  78 S14       29.99S WCI  28
CLINTON        CLEAR     37  32  81 S9        30.01S WCI  31
SEDALIA        CLEAR     38  30  73 S13       30.02R WCI  30
WARSAW         NOT AVBL
MARSHALL       PTCLDY    39  34  81 SE13      30.01F WCI  32
CHILLICOTHE      N/A     39  32  76 SE7       30.01S WCI  34
MOBERLY        PTCLDY    37  27  65 S15       30.05R WCI  28
KIRKSVILLE     MOCLDY    36  30  79 S21       29.98F WCI  25

$$

MOZ041-047>049-056>058-063>065-088>090-097-291200-
...EASTERN AND SOUTHERN MISSOURI...

CITY           SKY/WX    TMP DP  RH WIND       PRES   REMARKS
ST. LOUIS INTL CLEAR     35  21  56 SE14G21   30.17F WCI  26
SPIRIT OF STL  CLEAR     32  24  72 CALM      30.15F
COLUMBIA       CLEAR     35  27  72 SE16      30.04F WCI  25
JEFFERSON CITY CLEAR     35  25  66 SE10      30.09R WCI  27
MEXICO         CLEAR     36  32  87 S14       30.07F WCI  27
HANNIBAL       CLEAR     36  25  64 S15G21    30.07S WCI  26
ROLLA          CLEAR     35  23  61 S22G29    30.08F WCI  23
LEBANON        CLEAR     36  28  75 S18G26    30.06F WCI  25
OSAGE BEACH    CLEAR     37  27  65 S14G22    30.06F WCI  29
SPRINGFIELD    CLEAR     35  28  75 SE24G33   30.01F WCI  23
BRANSON        CLEAR     34  28  80 SE13      30.09F WCI  25
NEVADA         CLEAR     37  32  81 S13G20    29.98F WCI  29
JOPLIN         CLEAR     42  34  73 SE10      29.99R
WEST PLAINS    CLEAR     31  27  85 S7        30.16F WCI  24

$$

IAZ060-094-KSZ022-034>040-054-083-096-NEZ052-066-093-291200-
...KANSAS...SOUTHEAST NEBRASKA AND IOWA...

CITY           SKY/WX    TMP DP  RH WIND       PRES   REMARKS
TOPEKA         MOCLDY    44  37  76 SE10      29.92S
MANHATTAN      PTCLDY    48  41  76 W5        29.91R
EMPORIA        CLEAR     43  39  86 S18G24    29.87F WCI  35
CHANUTE        CLEAR     42  38  85 S13       29.93F
WICHITA        PTCLDY    48  42  80 S18       29.87F
OMAHA          MOCLDY    43  34  70 S16       29.87F
LINCOLN        CLOUDY    42  35  76 SE6       29.89S
FALLS CITY     CLOUDY    43  35  73 S10G23    29.89R
LAMONI         CLOUDY    38  32  79 S24G33    29.87F WCI  27
DES MOINES     RAIN      39  32  76 S15       29.88R WCI  31

$$



USA.gov is the U.S. government's official web portal to all federal, state and local government web resources and services.